GW0374 Weather Reports


time (UTC)temp
F
wind
direction
speed
knots
gust
knots
rain 1hr
in
rain 24hr
in
rain mn
in
humidity
%
barometer
mb
20260506203503 65 128 0.9 3.5 0.00 0.00 0.00 87 1013.9
20260506203004 65 131 0.9 4.3 0.00 0.00 0.00 87 1013.9
20260506202527 65 133 1.7 5.2 0.00 0.00 0.00 87 1013.9
20260506202024 65 130 1.7 5.2 0.00 0.00 0.00 87 1013.8
20260506201525 65 127 1.7 4.3 0.00 0.00 0.00 87 1013.7
20260506201003 65 128 0.9 4.3 0.00 0.00 0.00 87 1013.7
20260506200503 66 76 0.9 4.3 0.00 0.00 0.00 85 1013.5
20260506200004 65 42 0.9 7.0 0.00 0.00 0.00 88 1013.4
20260506195504 65 33 1.7 7.0 0.00 0.00 0.00 88 1013.4
20260506195003 65 28 0.9 5.2 0.00 0.00 0.00 87 1013.2
20260506194503 65 32 1.7 5.2 0.00 0.00 0.00 87 1013.1
20260506194003 65 32 1.7 5.2 0.00 0.00 0.00 87 1013.1
20260506193524 65 33 2.6 5.2 0.00 0.00 0.00 87 1013.1
20260506193003 65 38 2.6 5.2 0.00 0.00 0.00 85 1013.0
20260506192503 66 34 1.7 4.3 0.00 0.00 0.00 85 1013.0
20260506192004 66 28 0.9 4.3 0.00 0.00 0.00 83 1012.9
20260506191524 66 34 0.9 4.3 0.00 0.00 0.00 83 1012.8
20260506191025 66 79 0.9 3.5 0.00 0.00 0.00 82 1012.7
20260506190524 66 82 1.7 4.3 0.00 0.00 0.00 82 1012.6
20260506190024 67 82 1.7 4.3 0.00 0.00 0.00 80 1012.6
20260506185503 67 90 1.7 4.3 0.00 0.00 0.00 80 1012.8
20260506185003 67 89 1.7 7.0 0.00 0.00 0.00 80 1012.7
20260506184503 67 87 1.7 7.0 0.00 0.00 0.00 80 1012.6
20260506184003 67 87 1.7 5.2 0.00 0.00 0.00 80 1012.5
20260506183524 67 79 0.9 3.5 0.00 0.00 0.00 79 1012.7
20260506183024 67 84 0.9 3.5 0.00 0.00 0.00 79 1012.5
20260506182503 67 93 0.9 5.2 0.00 0.00 0.00 79 1012.5
20260506182003 68 88 0.9 5.2 0.00 0.00 0.00 77 1012.5
20260506181504 68 86 0.9 4.3 0.00 0.00 0.00 77 1012.5
20260506181003 68 82 1.7 7.0 0.00 0.00 0.00 77 1012.5
20260506180503 68 82 1.7 7.0 0.00 0.00 0.00 77 1012.4
20260506180003 68 80 1.7 5.2 0.00 0.00 0.00 75 1012.5
20260506175504 68 80 1.7 5.2 0.00 0.00 0.00 75 1012.3
20260506175003 68 86 1.7 5.2 0.00 0.00 0.00 77 1012.4
20260506174524 68 85 1.7 6.1 0.00 0.00 0.00 77 1012.4
20260506174004 68 86 1.7 6.1 0.00 0.00 0.00 77 1012.4
20260506173503 68 90 1.7 4.3 0.00 0.00 0.00 77 1012.5
20260506173003 68 88 2.6 7.0 0.00 0.00 0.00 75 1012.3
20260506172524 68 81 2.6 7.8 0.00 0.00 0.00 75 1012.4
20260506172003 68 77 2.6 7.8 0.00 0.00 0.00 74 1012.3
20260506171503 69 80 2.6 7.8 0.00 0.00 0.00 75 1012.2
20260506171004 69 81 2.6 7.0 0.00 0.00 0.00 75 1012.2
20260506170503 69 88 2.6 7.8 0.00 0.00 0.00 75 1012.1
20260506170024 69 89 3.5 7.8 0.00 0.00 0.00 75 1012.0
20260506165503 69 85 3.5 8.7 0.00 0.00 0.00 75 1012.1
20260506165003 69 89 3.5 8.7 0.00 0.00 0.00 75 1012.1
20260506164504 69 84 3.5 9.6 0.00 0.00 0.00 75 1012.1
20260506164004 69 79 3.5 9.6 0.00 0.00 0.00 75 1012.0
20260506163503 69 84 3.5 9.6 0.00 0.00 0.00 77 1012.0
20260506163003 69 84 4.3 10.4 0.00 0.00 0.00 75 1012.1
20260506162503 70 83 4.3 10.4 0.00 0.00 0.00 75 1012.1
20260506162003 70 82 3.5 10.4 0.00 0.00 0.00 74 1012.1
20260506161524 70 54 3.5 11.3 0.00 0.00 0.00 75 1012.1
20260506161003 70 30 4.3 11.3 0.00 0.00 0.00 77 1012.0
20260506160503 70 49 3.5 9.6 0.00 0.00 0.00 75 1012.0
20260506160003 70 70 2.6 9.6 0.00 0.00 0.00 75 1012.0
20260506155503 70 35 5.2 13.0 0.00 0.00 0.00 77 1011.8
20260506155025 70 34 7.8 13.0 0.00 0.00 0.00 77 1011.8
20260506154503 70 31 7.0 13.0 0.00 0.00 0.00 75 1011.8
20260506154003 71 31 6.1 13.9 0.00 0.00 0.00 75 1011.8
20260506153504 71 33 7.8 14.8 0.00 0.00 0.00 74 1011.7
20260506153024 72 32 7.8 14.8 0.00 0.00 0.00 72 1011.6
20260506152504 72 35 5.2 13.9 0.00 0.00 0.00 71 1011.5
20260506152004 72 34 5.2 13.0 0.00 0.00 0.00 69 1011.6
20260506151504 72 29 6.1 13.0 0.00 0.00 0.00 69 1011.6
20260506151003 72 27 5.2 12.2 0.00 0.00 0.00 68 1011.6
20260506150503 73 33 4.3 11.3 0.00 0.00 0.00 68 1011.7
20260506150003 73 34 6.1 13.9 0.00 0.00 0.00 69 1011.7
20260506145503 73 32 6.1 13.9 0.00 0.00 0.00 68 1011.7
20260506145003 73 33 7.0 15.6 0.00 0.00 0.00 66 1011.7
20260506144503 73 32 8.7 15.6 0.00 0.00 0.00 66 1011.6
20260506144003 73 32 7.8 15.6 0.00 0.00 0.00 69 1011.6
20260506143503 74 34 7.0 15.6 0.00 0.00 0.00 68 1011.8
20260506143003 74 29 7.8 15.6 0.00 0.00 0.00 68 1011.5
20260506142503 74 32 7.8 13.9 0.00 0.00 0.00 68 1011.4
20260506142024 74 36 7.8 13.9 0.00 0.00 0.00 69 1011.5
20260506141503 74 32 7.8 13.9 0.00 0.00 0.00 65 1011.5
20260506141003 74 37 7.0 13.9 0.00 0.00 0.00 62 1011.6
20260506140504 75 41 6.1 13.9 0.00 0.00 0.00 61 1011.5
20260506140004 76 37 6.1 13.9 0.00 0.00 0.00 58 1011.5
20260506135503 77 56 3.5 11.3 0.00 0.00 0.00 56 1011.4
20260506135003 76 61 3.5 10.4 0.00 0.00 0.00 58 1011.6
20260506134504 76 47 3.5 10.4 0.00 0.00 0.00 59 1011.6
20260506134024 77 45 3.5 10.4 0.00 0.00 0.00 58 1011.7
20260506133503 76 38 3.5 13.0 0.00 0.00 0.00 58 1011.7
20260506133003 76 33 3.5 10.4 0.00 0.00 0.00 56 1011.8
20260506132503 76 52 4.3 10.4 0.00 0.00 0.00 58 1011.9
20260506132003 76 55 4.3 11.3 0.00 0.00 0.00 58 1011.8
20260506131503 75 64 4.3 11.3 0.00 0.00 0.00 59 1012.0
20260506131003 76 65 3.5 9.6 0.00 0.00 0.00 58 1012.0
20260506130524 75 31 5.2 11.3 0.00 0.00 0.00 59 1011.9
20260506130003 75 31 5.2 11.3 0.00 0.00 0.00 59 1012.1
20260506125503 75 37 5.2 12.2 0.00 0.00 0.00 59 1012.1
20260506125003 75 46 4.3 12.2 0.00 0.00 0.00 59 1012.2
20260506124503 76 44 3.5 12.2 0.00 0.00 0.00 59 1012.2
20260506124004 76 36 3.5 11.3 0.00 0.00 0.00 59 1012.2
20260506123503 75 42 4.3 13.0 0.00 0.00 0.00 61 1012.2
20260506123004 75 37 4.3 15.6 0.00 0.00 0.00 62 1012.3
20260506122504 74 27 4.3 15.6 0.00 0.00 0.00 64 1012.2
20260506122003 74 30 5.2 13.9 0.00 0.00 0.00 64 1012.3
20260506121503 74 33 6.1 13.9 0.00 0.00 0.00 62 1012.3
20260506121003 74 40 4.3 10.4 0.00 0.00 0.00 61 1012.4
20260506120503 75 47 3.5 11.3 0.00 0.00 0.00 59 1012.3
20260506120003 75 35 5.2 11.3 0.00 0.00 0.00 61 1012.4
20260506115503 75 33 5.2 11.3 0.00 0.00 0.00 61 1012.5
20260506115004 75 35 3.5 11.3 0.00 0.00 0.00 61 1012.4
20260506114504 74 38 2.6 11.3 0.00 0.00 0.00 62 1012.5
20260506114003 75 39 2.6 7.8 0.00 0.00 0.00 59 1012.6
20260506113503 74 40 2.6 9.6 0.00 0.00 0.00 59 1012.8
20260506113003 74 39 4.3 10.4 0.00 0.00 0.00 58 1012.8
20260506112503 74 46 3.5 10.4 0.00 0.00 0.00 56 1012.9
20260506112003 75 47 3.5 9.6 0.00 0.00 0.00 58 1012.8
20260506111524 75 43 3.5 9.6 0.00 0.00 0.00 56 1012.7
20260506111024 74 30 3.5 11.3 0.00 0.00 0.00 59 1012.9
20260506110503 74 24 4.3 11.3 0.00 0.00 0.00 59 1012.9
20260506110004 75 30 2.6 9.6 0.00 0.00 0.00 58 1012.9
20260506105504 75 58 2.6 8.7 0.00 0.00 0.00 61 1013.1
20260506105024 74 70 1.7 7.8 0.00 0.00 0.00 58 1013.0
20260506104504 74 51 1.7 7.0 0.00 0.00 0.00 59 1013.1
20260506104003 74 25 2.6 13.0 0.00 0.00 0.00 59 1013.3
20260506103503 74 16 2.6 13.0 0.00 0.00 0.00 61 1013.3
20260506103003 74 21 1.7 8.7 0.00 0.00 0.00 61 1013.3
20260506102503 73 34 3.5 8.7 0.00 0.00 0.00 61 1013.4
20260506102003 74 30 2.6 7.8 0.00 0.00 0.00 62 1013.3
20260506101503 74 40 2.6 10.4 0.00 0.00 0.00 65 1013.5
20260506101003 73 47 3.5 10.4 0.00 0.00 0.00 64 1013.5
20260506100503 73 29 2.6 10.4 0.00 0.00 0.00 65 1013.6
20260506100003 73 11 1.7 10.4 0.00 0.00 0.00 65 1013.5
20260506095505 73 25 1.7 7.8 0.00 0.00 0.00 65 1013.5
20260506095004 73 54 1.7 7.8 0.00 0.00 0.00 66 1013.6
20260506094503 73 44 1.7 7.8 0.00 0.00 0.00 65 1013.6
20260506094003 72 20 1.7 7.8 0.00 0.00 0.00 66 1013.6
20260506093503 73 7 0.9 6.1 0.00 0.00 0.00 65 1013.5
20260506093004 72 46 0.9 3.5 0.00 0.00 0.00 66 1013.6
20260506092504 72 62 0.9 4.3 0.00 0.00 0.00 69 1013.5
20260506092003 71 360 0.9 4.3 0.00 0.00 0.00 68 1013.5
20260506091503 71 344 0.9 3.5 0.00 0.00 0.00 69 1013.4
20260506091003 70 34 1.7 8.7 0.00 0.00 0.00 71 1013.4
20260506090504 70 32 1.7 8.7 0.00 0.00 0.00 71 1013.4
20260506090003 71 39 0.9 5.2 0.00 0.00 0.00 68 1013.3
20260506085503 71 78 0.9 3.5 0.00 0.00 0.00 68 1013.3
20260506085003 70 47 0.9 4.3 0.00 0.00 0.00 69 1013.5
20260506084503 69 43 0.9 5.2 0.00 0.00 0.00 71 1013.4
20260506084025 69 39 0.9 5.2 0.00 0.00 0.00 69 1013.4
20260506083503 69 29 0.9 6.1 0.00 0.00 0.00 69 1013.3
20260506083003 69 31 0.9 6.1 0.00 0.00 0.00 69 1013.5
20260506082503 70 69 0.0 1.7 0.00 0.00 0.00 68 1013.4
20260506082003 69 359 0.9 3.5 0.00 0.00 0.00 66 1013.4
20260506081503 69 338 0.9 4.3 0.00 0.00 0.00 68 1013.5
20260506081025 69 318 0.9 4.3 0.00 0.00 0.00 65 1013.4
20260506080525 68 292 0.9 4.3 0.00 0.00 0.00 64 1013.4
20260506073503 67 303 0.0 1.7 0.00 0.00 0.00 62 1013.6
20260506073003 67 302 0.0 1.7 0.00 0.00 0.00 61 1013.7
20260506072503 67 257 0.0 1.7 0.00 0.00 0.00 61 1013.6
20260506072024 66 257 0.0 1.7 0.00 0.00 0.00 61 1013.6
20260506071503 66 254 0.0 0.9 0.00 0.00 0.00 61 1013.6
20260506071003 66 254 0.0 0.9 0.00 0.00 0.00 61 1013.7
20260506070503 65 254 0.0 0.9 0.00 0.00 0.00 62 1013.7
20260506062503 60 133 0.9 1.7 0.00 0.00 0.00 68 1013.6
20260506062004 59 130 0.0 1.7 0.00 0.00 0.00 69 1013.5
20260506061524 59 116 0.0 1.7 0.00 0.00 0.00 69 1013.5
20260506061003 58 0 0.0 0.0 0.00 0.00 0.00 71 1013.3
20260506060503 57 18 0.0 1.7 0.00 0.00 0.00 72 1013.2